| time (UTC) | temp C | wind direction | speed KPH | gust KPH | rain 1hr cm | rain 24hr cm | rain mn cm | humidity % | barometer mb |
| 20260503220040 | 14 | 239 | 0.0 | 1.6 | 0.00 | 0.00 | 0.00 | 35 | 1010.9 |
| 20260503214539 | 15 | 4 | 0.0 | 3.2 | 0.00 | 0.00 | 0.00 | 35 | 1010.9 |
| 20260503213039 | 15 | 26 | 0.0 | 3.2 | 0.00 | 0.00 | 0.00 | 35 | 1010.8 |
| 20260503211538 | 16 | 211 | 0.0 | 1.6 | 0.00 | 0.00 | 0.00 | 37 | 1010.9 |
| 20260503210038 | 15 | 43 | 0.0 | 4.8 | 0.00 | 0.00 | 0.00 | 36 | 1010.8 |
| 20260503204537 | 15 | 5 | 0.0 | 3.2 | 0.00 | 0.00 | 0.00 | 35 | 1010.9 |
| 20260503203042 | 16 | 36 | 0.0 | 3.2 | 0.00 | 0.00 | 0.00 | 36 | 1010.6 |
| 20260503201536 | 17 | 328 | 0.0 | 3.2 | 0.00 | 0.00 | 0.00 | 36 | 1010.9 |
| 20260503200035 | 16 | 281 | 0.0 | 3.2 | 0.00 | 0.00 | 0.00 | 37 | 1011.0 |
| 20260503194531 | 16 | 46 | 0.0 | 4.8 | 0.00 | 0.00 | 0.00 | 33 | 1011.2 |
| 20260503193028 | 15 | 333 | 0.0 | 3.2 | 0.00 | 0.00 | 0.00 | 36 | 1011.2 |
| 20260503191527 | 15 | 218 | 0.0 | 4.8 | 0.00 | 0.00 | 0.00 | 36 | 1011.4 |
| 20260503190027 | 15 | 33 | 0.0 | 3.2 | 0.00 | 0.00 | 0.00 | 33 | 1011.4 |
| 20260503184526 | 15 | 23 | 0.0 | 4.8 | 0.00 | 0.00 | 0.00 | 35 | 1011.6 |
| 20260503183024 | 15 | 90 | 0.0 | 8.0 | 0.00 | 0.00 | 0.00 | 40 | 1011.8 |
| 20260503181520 | 15 | 231 | 0.0 | 3.2 | 0.00 | 0.00 | 0.00 | 37 | 1011.8 |
| 20260503180018 | 14 | 277 | 0.0 | 4.8 | 0.00 | 0.00 | 0.00 | 43 | 1011.8 |
| 20260503174515 | 13 | 319 | 0.0 | 4.8 | 0.00 | 0.00 | 0.00 | 45 | 1012.0 |
| 20260503173011 | 12 | 355 | 0.0 | 4.8 | 0.00 | 0.00 | 0.00 | 42 | 1012.1 |
| 20260503171511 | 12 | 204 | 0.0 | 6.4 | 0.00 | 0.00 | 0.00 | 43 | 1012.2 |
| 20260503081519 | 6 | 39 | 0.0 | 1.6 | 0.00 | 0.00 | 0.00 | 62 | 1010.6 |
| 20260503071515 | 7 | 290 | 0.0 | 1.6 | 0.00 | 0.00 | 0.00 | 59 | 1010.6 |
| 20260503054509 | 7 | 347 | 0.0 | 1.6 | 0.00 | 0.00 | 0.00 | 56 | 1010.8 |
| 20260503053101 | 7 | 4 | 0.0 | 1.6 | 0.00 | 0.00 | 0.00 | 55 | 1010.9 |
| 20260503051559 | 8 | 1 | 0.0 | 0.0 | 0.00 | 0.00 | 0.00 | 55 | 1011.0 |
| 20260503050056 | 8 | 1 | 0.0 | 0.0 | 0.00 | 0.00 | 0.00 | 56 | 1011.2 |
| 20260503044556 | 8 | 356 | 0.0 | 0.0 | 0.00 | 0.00 | 0.00 | 56 | 1011.3 |
| 20260503043054 | 8 | 355 | 0.0 | 0.0 | 0.00 | 0.00 | 0.00 | 55 | 1011.4 |
| 20260503041551 | 8 | 355 | 0.0 | 0.0 | 0.00 | 0.00 | 0.00 | 54 | 1011.3 |
| 20260503040047 | 8 | 355 | 0.0 | 0.0 | 0.00 | 0.00 | 0.00 | 53 | 1011.4 |
| 20260503034548 | 8 | 355 | 0.0 | 0.0 | 0.00 | 0.00 | 0.00 | 53 | 1011.2 |
| 20260503033047 | 8 | 356 | 0.0 | 1.6 | 0.00 | 0.00 | 0.00 | 53 | 1011.1 |
| 20260503031546 | 8 | 236 | 0.0 | 0.0 | 0.00 | 0.00 | 0.00 | 54 | 1011.2 |
| 20260503030046 | 8 | 236 | 0.0 | 0.0 | 0.00 | 0.00 | 0.00 | 55 | 1011.3 |
| 20260503024545 | 8 | 236 | 0.0 | 0.0 | 0.00 | 0.00 | 0.00 | 55 | 1011.4 |
| 20260503023044 | 9 | 236 | 0.0 | 0.0 | 0.00 | 0.00 | 0.00 | 54 | 1011.5 |
| 20260503021553 | 9 | 236 | 0.0 | 0.0 | 0.00 | 0.00 | 0.00 | 54 | 1011.4 |
| 20260503020045 | 10 | 236 | 0.0 | 0.0 | 0.00 | 0.00 | 0.00 | 51 | 1011.4 |
| 20260503014543 | 10 | 236 | 0.0 | 0.0 | 0.00 | 0.00 | 0.00 | 51 | 1011.4 |
| 20260503013042 | 10 | 236 | 0.0 | 0.0 | 0.00 | 0.00 | 0.00 | 50 | 1011.6 |
| 20260503011549 | 10 | 236 | 0.0 | 0.0 | 0.00 | 0.00 | 0.00 | 53 | 1011.5 |
| 20260503010043 | 10 | 236 | 0.0 | 0.0 | 0.00 | 0.00 | 0.00 | 52 | 1011.3 |
| 20260503004540 | 10 | 236 | 0.0 | 0.0 | 0.00 | 0.00 | 0.00 | 51 | 1011.0 |
| 20260503003040 | 11 | 236 | 0.0 | 0.0 | 0.00 | 0.00 | 0.00 | 50 | 1010.9 |
| 20260503001540 | 11 | 236 | 0.0 | 0.0 | 0.00 | 0.00 | 0.00 | 49 | 1010.8 |
| 20260503000056 | 11 | 236 | 0.0 | 0.0 | 0.00 | 0.00 | 0.00 | 48 | 1010.8 |
| 20260502234539 | 11 | 236 | 0.0 | 0.0 | 0.00 | 0.00 | 0.00 | 48 | 1010.6 |
| 20260502233038 | 12 | 236 | 0.0 | 0.0 | 0.00 | 0.00 | 0.00 | 49 | 1010.8 |
| 20260502231540 | 12 | 236 | 0.0 | 0.0 | 0.00 | 0.00 | 0.00 | 47 | 1010.6 |
| 20260502230038 | 12 | 236 | 0.0 | 0.0 | 0.00 | 0.00 | 0.00 | 46 | 1010.5 |
| 20260502224537 | 12 | 132 | 0.0 | 0.0 | 0.00 | 0.00 | 0.00 | 46 | 1010.5 |
| 20260502223037 | 13 | 133 | 0.0 | 0.0 | 0.00 | 0.00 | 0.00 | 45 | 1010.3 |
| 20260502221538 | 13 | 200 | 0.0 | 0.0 | 0.00 | 0.00 | 0.00 | 46 | 1010.4 |